Arcata, CA

3:44 AM PDT on April 24, 2017 (GMT -0700)
Arcata

Weather History for KACV - October, 2012

Change the Weather History Date:

Friday, October 26, 2012

  Actual Average Record
Temperature  
Mean Temperature 51 °F -  
Max Temperature 60 °F 58 °F 84 °F (2003)
Min Temperature 43 °F 41 °F 36 °F (2006)
Degree Days  
Heating Degree Days 14    
Growing Degree Days 1 (Base 50)    
Moisture  
Dew Point 51 °F    
Average Humidity 93    
Maximum Humidity 100    
Minimum Humidity 74    
Precipitation  
Precipitation 0.05 in - - ()
Sea Level Pressure  
Sea Level Pressure 30.26 in    
Wind  
Wind Speed 2 mph (SE)    
Max Wind Speed 6 mph    
Max Gust Speed -    
Visibility 8 miles    
Events Fog , Rain    
Averages and records for this station are not official NWS values.
T = Trace of Precipitation, MM = Missing Value Source: NWS Daily Summary

Daily Weather History Graph

Daily Weather History Graph

Search for Another Location

Airport or City:

Trip Planner

Search our weather history database for the weather conditions in past years. The results will help you decide how hot, cold, wet, or windy it might be!

Date:

Astronomy

Oct. 26, 2012 Rise Set
Actual Time 7:40 AM PDT 6:19 PM PDT
Civil Twilight 7:12 AM PDT 6:47 PM PDT
Nautical Twilight 6:40 AM PDT 7:19 PM PDT
Astronomical Twilight 6:08 AM PDT 7:51 PM PDT
Moon 4:38 PM PDT (10/26) 4:41 AM PDT (10/26)
Length of Visible Light 11h 34m
Length of Day
10h 38m
Waxing Gibbous, 91% of the Moon is Illuminated
Oct 26
Waxing Gibbous
Oct 29
Full
Nov 6
Last Quarter
Nov 13
New
Nov 20
First Quarter

Hourly Weather History & Observations

Time (PDT) Temp. Windchill Dew Point Humidity Pressure Visibility Wind Dir Wind Speed Gust Speed Precip Events Conditions
12:53 AM 44.1 °F - 43.0 °F 96% 30.33 in 10.0 mi Calm Calm - N/A   Clear
1:53 AM 43.0 °F 41.3 °F 42.1 °F 97% 30.33 in 10.0 mi East 3.5 mph - N/A   Partly Cloudy
2:53 AM 43.0 °F 40.3 °F 42.1 °F 97% 30.31 in 10.0 mi ESE 4.6 mph - N/A   Clear
3:53 AM 45.0 °F 43.5 °F 43.0 °F 93% 30.30 in 10.0 mi ESE 3.5 mph - N/A   Overcast
4:53 AM 45.0 °F - 44.1 °F 97% 30.30 in 10.0 mi Calm Calm - N/A   Overcast
6:53 AM 48.9 °F - 41.0 °F 74% 30.30 in 10.0 mi East 4.6 mph - N/A   Overcast
7:53 AM 48.9 °F - 43.0 °F 80% 30.30 in 10.0 mi Calm Calm - N/A   Overcast
8:53 AM 48.0 °F - 44.1 °F 86% 30.30 in 5.0 mi ESE 4.6 mph - 0.02 in Rain Light Rain
9:53 AM 48.9 °F - 46.9 °F 93% 30.32 in 6.0 mi Calm Calm - 0.02 in Rain Light Rain
10:53 AM 50.0 °F - 46.9 °F 89% 30.32 in 7.0 mi SE 3.5 mph - 0.00 in Rain Light Rain
11:05 AM 50.0 °F - 48.2 °F 94% 30.30 in 10.0 mi SSE 3.5 mph - 0.00 in   Overcast
11:38 AM 51.8 °F - 50.0 °F 94% 30.28 in 10.0 mi SE 3.5 mph - 0.01 in   Overcast
11:53 AM 54.0 °F - 50.0 °F 86% 30.30 in 10.0 mi ESE 4.6 mph - 0.01 in   Overcast
12:06 PM 53.6 °F - 51.8 °F 94% 30.27 in 10.0 mi SSE 5.8 mph - N/A   Overcast
12:53 PM 55.0 °F - 51.1 °F 86% 30.29 in 10.0 mi ESE 4.6 mph - N/A   Overcast
1:30 PM 57.2 °F - 53.6 °F 88% 30.26 in 10.0 mi ENE 3.5 mph - N/A   Overcast
1:53 PM 57.0 °F - 54.0 °F 89% 30.27 in 10.0 mi ESE 3.5 mph - N/A   Overcast
2:53 PM 59.0 °F - 55.9 °F 90% 30.25 in 10.0 mi South 3.5 mph - N/A   Overcast
3:53 PM 59.0 °F - 55.9 °F 90% 30.25 in 10.0 mi Calm Calm - N/A   Overcast
4:53 PM 59.0 °F - 55.9 °F 90% 30.23 in 10.0 mi Calm Calm - N/A   Overcast
5:40 PM 59.0 °F - 55.4 °F 88% 30.20 in 10.0 mi Calm Calm - N/A   Overcast
5:50 PM 57.2 °F - 55.4 °F 94% 30.20 in 10.0 mi West 3.5 mph - N/A   Overcast
5:53 PM 57.9 °F - 55.9 °F 93% 30.22 in 10.0 mi West 3.5 mph - N/A   Overcast
6:53 PM 57.0 °F - 55.9 °F 96% 30.22 in 10.0 mi Calm Calm - N/A   Overcast
7:53 PM 57.0 °F - 55.9 °F 96% 30.23 in 10.0 mi Calm Calm - N/A   Overcast
8:51 PM 57.2 °F - 55.4 °F 94% 30.20 in 8.0 mi Calm Calm - N/A   Overcast
8:53 PM 57.0 °F - 55.9 °F 96% 30.22 in 8.0 mi Calm Calm - N/A   Overcast
9:53 PM 57.0 °F - 55.9 °F 96% 30.23 in 10.0 mi Calm Calm - N/A   Overcast
10:53 PM 55.9 °F - 55.0 °F 97% 30.22 in 3.0 mi Calm Calm - N/A   Overcast
11:06 PM 55.4 °F - 55.4 °F 100% 30.20 in 2.0 mi Calm Calm - N/A   Mostly Cloudy
11:13 PM 53.6 °F - 53.6 °F 100% 30.19 in 1.2 mi Calm Calm - N/A   Mostly Cloudy
11:32 PM 53.6 °F - 53.6 °F 100% 30.19 in 0.2 mi NW 3.5 mph - N/A Fog Fog
11:53 PM 54.0 °F - 54.0 °F 100% 30.21 in 0.2 mi Calm Calm - N/A Fog Fog